Southern Pines, NC

6:24 PM EDT on September 25, 2016 (GMT -0400)
Moore County

Weather History for KSOP - March, 2012

Change the Weather History Date:

Thursday, March 1, 2012

  Actual Average Record
Temperature  
Mean Temperature 70 °F -  
Max Temperature 80 °F 56 °F 80 °F (1981)
Min Temperature 59 °F 36 °F 15 °F (2002)
Cooling Degree Days 4    
Growing Degree Days 20 (Base 50)    
Moisture  
Dew Point 52 °F    
Average Humidity 60    
Maximum Humidity 83    
Minimum Humidity 30    
Precipitation  
Precipitation 0.00 in - - ()
Sea Level Pressure  
Sea Level Pressure 29.82 in    
Wind  
Wind Speed 13 mph (WSW)    
Max Wind Speed 18 mph    
Max Gust Speed 28 mph    
Visibility 10 miles    
Events      
Averages and records for this station are not official NWS values.
T = Trace of Precipitation, MM = Missing Value Source: NWS Daily Summary

Daily Weather History Graph

Daily Weather History Graph

Search for Another Location

Airport or City:

Trip Planner

Search our weather history database for the weather conditions in past years. The results will help you decide how hot, cold, wet, or windy it might be!

Date:

Astronomy

Mar. 01, 2012 Rise Set
Actual Time 6:46 AM EST 6:13 PM EST
Civil Twilight 6:21 AM EST 6:39 PM EST
Nautical Twilight 5:51 AM EST 7:08 PM EST
Astronomical Twilight 5:22 AM EST 7:37 PM EST
Moon 11:42 AM EST (3/1) 1:34 AM EST (3/1)
Length of Visible Light 12h 17m
Length of Day
11h 27m
First Quarter, 56% of the Moon is Illuminated
Mar 1
First Quarter
Mar 8
Full
Mar 14
Last Quarter
Mar 22
New
Mar 30
First Quarter

Hourly Weather History & Observations

Time (EST) Temp. Dew Point Humidity Pressure Visibility Wind Dir Wind Speed Gust Speed Precip Events Conditions
12:15 AM 64.4 °F 57.2 °F 77% 29.84 in 10.0 mi SSW 15.0 mph - N/A   Mostly Cloudy
12:35 AM 64.4 °F 57.2 °F 77% 29.84 in 10.0 mi SW 16.1 mph - N/A   Clear
12:55 AM 64.4 °F 57.2 °F 77% 29.84 in 10.0 mi SW 16.1 mph 24.2 mph N/A   Clear
1:15 AM 64.4 °F 57.2 °F 77% 29.84 in 10.0 mi SW 16.1 mph 23.0 mph N/A   Scattered Clouds
1:35 AM 66.2 °F 59.0 °F 78% 29.83 in 10.0 mi SW 18.4 mph 21.9 mph N/A   Mostly Cloudy
1:55 AM 66.2 °F 57.2 °F 73% 29.83 in 10.0 mi SW 15.0 mph 24.2 mph N/A   Scattered Clouds
2:15 AM 64.4 °F 59.0 °F 83% 29.83 in 10.0 mi WSW 13.8 mph 23.0 mph N/A   Scattered Clouds
2:35 AM 66.2 °F 57.2 °F 73% 29.82 in 10.0 mi WSW 12.7 mph 23.0 mph N/A   Scattered Clouds
2:55 AM 66.2 °F 57.2 °F 73% 29.81 in 10.0 mi WSW 18.4 mph 25.3 mph N/A   Partly Cloudy
3:15 AM 66.2 °F 57.2 °F 73% 29.82 in 10.0 mi WSW 11.5 mph 19.6 mph N/A   Clear
3:35 AM 64.4 °F 57.2 °F 77% 29.82 in 10.0 mi WSW 15.0 mph 21.9 mph N/A   Clear
4:15 AM 64.4 °F 57.2 °F 77% 29.82 in 10.0 mi WSW 15.0 mph 18.4 mph N/A   Overcast
4:35 AM 64.4 °F 57.2 °F 77% 29.81 in 10.0 mi SW 15.0 mph 18.4 mph N/A   Mostly Cloudy
5:15 AM 64.4 °F 57.2 °F 77% 29.81 in 10.0 mi SW 16.1 mph - N/A   Partly Cloudy
5:35 AM 64.4 °F 57.2 °F 77% 29.82 in 10.0 mi SW 13.8 mph 19.6 mph N/A   Scattered Clouds
6:15 AM 62.6 °F 57.2 °F 82% 29.81 in 10.0 mi SW 10.4 mph - N/A   Partly Cloudy
6:35 AM 62.6 °F 57.2 °F 82% 29.82 in 10.0 mi SW 12.7 mph - N/A   Partly Cloudy
6:55 AM 62.6 °F 57.2 °F 82% 29.83 in 10.0 mi SW 15.0 mph - N/A   Mostly Cloudy
7:15 AM 62.6 °F 57.2 °F 82% 29.83 in 10.0 mi SW 16.1 mph - N/A   Mostly Cloudy
7:35 AM 62.6 °F 57.2 °F 82% 29.84 in 10.0 mi SW 13.8 mph 19.6 mph N/A   Partly Cloudy
8:15 AM 64.4 °F 59.0 °F 83% 29.85 in 10.0 mi WSW 9.2 mph - N/A   Scattered Clouds
8:35 AM 64.4 °F 59.0 °F 83% 29.86 in 10.0 mi WSW 11.5 mph - N/A   Mostly Cloudy
8:55 AM 66.2 °F 59.0 °F 78% 29.86 in 10.0 mi WSW 10.4 mph - N/A   Overcast
9:15 AM 66.2 °F 59.0 °F 78% 29.86 in 10.0 mi WSW 11.5 mph 16.1 mph N/A   Overcast
9:35 AM 66.2 °F 59.0 °F 78% 29.86 in 10.0 mi WSW 10.4 mph 21.9 mph N/A   Overcast
9:55 AM 68.0 °F 59.0 °F 73% 29.86 in 10.0 mi WSW 16.1 mph 21.9 mph N/A   Overcast
10:15 AM 69.8 °F 59.0 °F 68% 29.87 in 10.0 mi WSW 13.8 mph 19.6 mph N/A   Overcast
10:35 AM 71.6 °F 60.8 °F 69% 29.86 in 10.0 mi WSW 13.8 mph 23.0 mph N/A   Mostly Cloudy
11:15 AM 73.4 °F 57.2 °F 57% 29.86 in 10.0 mi West 12.7 mph 21.9 mph N/A   Overcast
11:35 AM 71.6 °F 55.4 °F 57% 29.85 in 10.0 mi West 18.4 mph 23.0 mph N/A   Mostly Cloudy
11:55 AM 75.2 °F 55.4 °F 50% 29.84 in 10.0 mi West 15.0 mph 21.9 mph N/A   Mostly Cloudy
12:15 PM 75.2 °F 55.4 °F 50% 29.83 in 10.0 mi WSW 17.3 mph 27.6 mph N/A   Partly Cloudy
12:55 PM 77.0 °F 53.6 °F 44% 29.80 in 10.0 mi West 9.2 mph 23.0 mph N/A   Clear
1:15 PM 78.8 °F 53.6 °F 42% 29.79 in 10.0 mi WSW 13.8 mph 23.0 mph N/A   Clear
1:55 PM 80.6 °F 51.8 °F 37% 29.77 in 10.0 mi WSW 13.8 mph 18.4 mph N/A   Partly Cloudy
2:35 PM 78.8 °F 48.2 °F 34% 29.76 in 10.0 mi West 11.5 mph 21.9 mph N/A   Clear
2:55 PM 80.6 °F 48.2 °F 32% 29.75 in 10.0 mi West 10.4 mph 18.4 mph N/A   Clear
3:15 PM 80.6 °F 48.2 °F 32% 29.75 in 10.0 mi West 12.7 mph 18.4 mph N/A   Partly Cloudy
3:35 PM 80.6 °F 46.4 °F 30% 29.75 in 10.0 mi WSW 13.8 mph 19.6 mph N/A   Scattered Clouds
4:15 PM 80.6 °F 46.4 °F 30% 29.76 in 10.0 mi West 11.5 mph 16.1 mph N/A   Partly Cloudy
4:35 PM 78.8 °F 44.6 °F 30% 29.76 in 10.0 mi West 10.4 mph 17.3 mph N/A   Clear
4:55 PM 78.8 °F 44.6 °F 30% 29.77 in 10.0 mi West 11.5 mph 16.1 mph N/A   Clear
5:15 PM 78.8 °F 44.6 °F 30% 29.77 in 10.0 mi West 9.2 mph 18.4 mph N/A   Clear
5:55 PM 75.2 °F 44.6 °F 34% 29.79 in 10.0 mi WSW 5.8 mph - N/A   Clear
6:35 PM 69.8 °F 44.6 °F 40% 29.80 in 10.0 mi Calm Calm - N/A   Clear
6:55 PM 68.0 °F 42.8 °F 40% 29.81 in 10.0 mi Calm Calm - N/A   Clear
7:15 PM 64.4 °F 42.8 °F 45% 29.81 in 10.0 mi SW 4.6 mph - N/A   Clear
7:35 PM 62.6 °F 42.8 °F 48% 29.82 in 10.0 mi WSW 5.8 mph - N/A   Clear
7:55 PM 64.4 °F 42.8 °F 45% 29.83 in 10.0 mi WSW 4.6 mph - N/A   Clear
8:15 PM 64.4 °F 41.0 °F 42% 29.83 in 10.0 mi SSW 4.6 mph - N/A   Clear
8:35 PM 60.8 °F 41.0 °F 48% 29.84 in 10.0 mi SW 4.6 mph - N/A   Clear
8:55 PM 62.6 °F 41.0 °F 45% 29.84 in 10.0 mi WSW 6.9 mph - N/A   Clear
9:15 PM 62.6 °F 41.0 °F 45% 29.85 in 10.0 mi SW 6.9 mph - N/A   Clear
9:35 PM 59.0 °F 42.8 °F 55% 29.86 in 10.0 mi SW 6.9 mph - N/A   Clear
9:55 PM 59.0 °F 44.6 °F 59% 29.86 in 10.0 mi WSW 8.1 mph - N/A   Clear
10:15 PM 60.8 °F 48.2 °F 63% 29.87 in 10.0 mi North 6.9 mph - N/A   Clear
10:35 PM 60.8 °F 42.8 °F 52% 29.88 in 10.0 mi NW 3.5 mph - N/A   Clear
10:55 PM 60.8 °F 42.8 °F 52% 29.89 in 10.0 mi West 5.8 mph - N/A   Clear
11:15 PM 60.8 °F 44.6 °F 55% 29.89 in 10.0 mi WSW 4.6 mph - N/A   Clear
11:35 PM 57.2 °F 44.6 °F 63% 29.89 in 10.0 mi WSW 4.6 mph - N/A   Clear
11:55 PM 57.2 °F 46.4 °F 67% 29.89 in 10.0 mi WSW 5.8 mph - N/A   Clear